Regional Weather Roundup
Issued by NWS

Home | Current Version | Previous Version | Graphics & Text | Print | Product List | Glossary On
Versions: 1 2 3 4 5 6 7 8 9 10 11 12 13 14 15 16 17 18 19 20 21 22 23 24 25 26 27 28 29 30 31 32 33 34 35 36 37 38 39 40 41 42 43 44 45 46 47 48 49 50
000
ASUS45 KTFX 152204
RWRMT
MONTANA HOURLY WEATHER ROUNDUP
NATIONAL WEATHER SERVICE GREAT FALLS MT
404 PM MDT MON SEP 15 2014

NOTE: "FAIR" INDICATES FEW OR NO CLOUDS BELOW 12000 FEET WITH NO
SIGNIFICANT WEATHER AND/OR OBSTRUCTIONS TO VISIBILITY.

* THESE STATIONS ARE NOT UNDER NWS QUALITY CONTROL. THEY DO NOT
   REPORT WEATHER SUCH AS PRECIPITATION OR FOG.

MTZ001>007-043-152300-
WEST OF THE DIVIDE
CITY           SKY/WX    TMP DP  RH WIND       PRES   REMARKS
KALISPELL      SUNNY     75  36  24 S8        30.03F
MISSOULA       SUNNY     79  28  15 CALM      30.02F
BUTTE          SUNNY     77  25  14 CALM      30.14F
MULLAN PASS    SUNNY     70  25  18 VRB3      30.17F
* LINCOLN      N/A       78  25  14 W7G16      N/A
* LOOKOUT PASS N/A       74  25  16 VRB8       N/A
* POLSON       N/A       78  34  20 SW3        N/A
* RONAN APT    SUNNY     79  36  21 N5         N/A
* SEELEY LAKE  N/A       79  29  16 S3G12      N/A
* THOMP F APT  SUNNY     77  27  16 S9G18      N/A
$$

MTZ008-052>055-152300-
SOUTHWEST MONTANA
CITY           SKY/WX    TMP DP  RH WIND       PRES   REMARKS
BOZEMAN        SUNNY     75  39  27 CALM      30.11F
DILLON         SUNNY     81  25  13 VRB6      30.10F
W YELLOWSTONE  SUNNY     73  25  17 W7        30.21F
* THREE FORKS  SUNNY     73  48  41 E5         N/A
* BOULDER HILL N/A       74  31  21 VRB3       N/A
* MONIDA PASS  N/A       72  22  15 W14G19     N/A
* RAYNOLDS PAS N/A       73  68  84 W6G22      N/A
* WHITEHALL    N/A       78  40  26 SE3        N/A
* WISE RIVER   N/A       77  20  12 NW11G20    N/A
$$

MTZ009>010-012-014-046-048-049-054-152300-
EAST SLOPES AND CENTRAL MONTANA
CITY           SKY/WX    TMP DP  RH WIND       PRES   REMARKS
CUT BANK       SUNNY     75  37  25 N/A       30.02F
GREAT FALLS    SUNNY     75  34  22 CALM      30.03F
HELENA         SUNNY     79  37  22 E6        30.06F
MALMSTROM AFB  SUNNY     75  32  21 VRB3      30.04F
* CONRAD       SUNNY     75  37  25 N/A        N/A
* EAST GLACIER N/A       70  32  25 NW13       N/A
* MONARCH      N/A       70  20  15 NW14G20    N/A
* PENDROY      N/A       74  37  26 W1         N/A
* ROGERS PASS  N/A       72  17  12 SE12G23    N/A
* SAINT MARY   N/A       73  33  23 S8G15      N/A
* SWEET GRASS  N/A       73  37  27 S8         N/A
$$

MTZ011-013-016-021-035-040-045-047-050-051-152300-
NORTH CENTRAL MONTANA
CITY           SKY/WX    TMP DP  RH WIND       PRES   REMARKS
HAVRE          SUNNY     73  41  32 NE3       30.02F
LEWISTOWN      SUNNY     75  39  27 VRB3      30.07F
* CHESTER      N/A       73  38  28 W2G8       N/A
* DENTON       N/A       76  35  23 SW4        N/A
* GEYSER       N/A       75  33  22 W9G14      N/A
* JUDITH GAP   N/A       68  39  35 SE9        N/A
* LOMA         N/A       75  38  26 S2G10      N/A
$$

MTZ017>020-022>027-061-062-152300-
NORTHEAST MONTANA
CITY           SKY/WX    TMP DP  RH WIND       PRES   REMARKS
GLASGOW        SUNNY     70  36  29 S10       30.06F
GLENDIVE       SUNNY     68  37  32 S5        30.11F
JORDAN         SUNNY     72  39  30 SW10      30.06F
SIDNEY         SUNNY     68  34  28 S8        30.11F
WOLF POINT     SUNNY     72  28  19 CALM      30.07F
* BEAVER HILL  N/A       67  33  28 S9         N/A
* CIRCLE       N/A       69  40  35 S4         N/A
* LINDSAY DVD  N/A       66  34  31 S9         N/A
* NAVAJO       N/A       67  30  25 SW9G14     N/A
* SACO         N/A       70  37  30 SW6        N/A
$$

MTZ028>042-056>058-152300-
SOUTHCENTRAL AND SOUTHEAST MONTANA
CITY           SKY/WX    TMP DP  RH WIND       PRES   REMARKS
BAKER          SUNNY     68  39  35 SW7       30.12F
BILLINGS       SUNNY     72  43  35 NE5       30.08F
LIVINGSTON     SUNNY     79  37  22 S5        30.08F
MILES CITY     SUNNY     72  37  28 CALM      30.08F
* LAUREL APT   SUNNY     72  43  35 N/A        N/A
* ROUNDUP APT  SUNNY     72  41  33 S9         N/A
* ALZADA       N/A       68  43  40 E4G11      N/A
* HYSHAM       N/A       72  33  24 S4         N/A
* LAME DEER    N/A       67  39  36 E7         N/A
* REED POINT   N/A       74  41  31 N2         N/A
* ROSCOE HILL  N/A       71  34  26 N6         N/A
$$

REGIONAL REPORTS...DAKOTAS
CITY           SKY/WX    TMP DP  RH WIND       PRES   REMARKS
WILLISTON      SUNNY     68  32  26 S9        30.10F
DICKINSON      SUNNY     66  36  33 SW15      30.11F
BEACH          N/A       66  37  34 S9        30.12F
CROSBY         SUNNY     68  32  26 SW10      30.09F
TIOGA          SUNNY     66  28  24 SW10      30.13F
WATFORD CITY   SUNNY     68  32  26 CALM      30.09F
BISMARCK       SUNNY     70  34  27 SW9       30.16F
GRAND FORKS    PTCLDY    68  39  35 W12       30.11F
FARGO          SUNNY     64  36  35 W9        30.17S
RAPID CITY     SUNNY     66  45  47 S20       30.16F
$$

REGIONAL REPORTS...WYOMING/IDAHO/WASHINGTON
CITY           SKY/WX    TMP DP  RH WIND       PRES   REMARKS
GILLETTE       SUNNY     72  43  35 SE14      30.12F
SHERIDAN       SUNNY     73  46  38 NW5       30.09F
CODY           SUNNY     70  41  35 CALM      30.12F
YELLOWSTONE LA PTCLDY    66  30  26 VRB5      30.32S
SALMON         SUNNY     79  30  17 SW5       30.04F
MULLAN PASS    SUNNY     70  25  18 VRB3      30.17S
SAND POINT     SUNNY     75  41  30 CALM      29.98F
SPOKANE        PTSUNNY   81  30  16 CALM      29.97F

$$



USA.gov is the U.S. government's official web portal to all federal, state and local government web resources and services.